Weather Roundup
Issued by NWS Springfield, MO

Home | Current Version | Previous Version | Text Only | Print | Product List | Glossary Off
Versions: 1 2 3 4 5 6 7 8 9 10 11 12 13 14 15 16 17 18 19 20 21 22 23 24 25 26 27 28 29 30 31 32 33 34 35 36 37 38 39 40 41 42 43 44 45 46 47 48 49 50

000
NZUS99 KSGF 231007
HRRSGF

HOURLY WEATHER
NATIONAL WEATHER SERVICE SPRINGFIELD MO
500 AM CDT MON OCT 23 2017

......SGF CWA......

CITY           SKY/WX    TMP DP  RH WIND       PRES   REMARKS
SPRINGFIELD    CLEAR     44  42  93 SW5       30.01F
JOPLIN         CLEAR     43  43 100 MISG      30.04S
WEST PLAINS    CLOUDY    51  44  77 CALM      29.96F
ROLLA          CLOUDY    50  48  93 W7        29.99R
OSAGE BEACH    CLOUDY    50  48  93 W3        30.00F
BRANSON        PTCLDY    45  45 100 CALM      30.02S

......SURROUNDING SGF CWA......

CITY           SKY/WX    TMP DP  RH WIND       PRES   REMARKS
CHANUTE        CLEAR     44  38  79 SE6       30.01F
PARSONS        CLEAR     41  39  93 CALM      30.03F
COFFEYVILLE    CLEAR     44  42  93 S3        30.03S
EMPORIA        CLEAR     49  38  65 S12       29.95F
GROVE OK       CLEAR     41  41 100 CALM      30.06F
ROGERS AR      CLEAR     43  41  93 SW6       30.06S
SILOAM SPRINGS CLEAR     38  38 100 CALM      30.06F
HARRISON AR    CLEAR     47  42  83 W5        30.01F
NEAR YELLVILLE CLOUDY    51  48  89 W6        30.01F

......KANSAS AND MISSOURI......

CITY           SKY/WX    TMP DP  RH WIND       PRES   REMARKS
KANSAS CTY INT CLEAR     42  39  89 S7        29.96F
DOWNTOWN KC    CLEAR     49  40  71 SW3       29.97F
COLUMBIA       CLOUDY    49  46  90 W7        29.98R
SEDALIA        CLOUDY    48  44  86 SW6       29.99F
ST JOSEPH      CLEAR     46  41  82 S6        29.94F
ST LOUIS       CLOUDY    51  50  96 W10       29.93F
SPIRIT OF STL  CLOUDY    52  50  93 W7        29.94F
KIRKSVILLE     CLOUDY    48  45  89 W8        29.94F
WICHITA        CLEAR     48  43  82 S9        29.97F
TOPEKA         CLEAR     45  39  79 SE5       29.94F
OLATHE         CLEAR     43  38  82 S7        29.98F

......TENNESSEE......

CITY           SKY/WX    TMP DP  RH WIND       PRES   REMARKS
MEMPHIS        CLOUDY    54  52  93 NW12      29.96R
NASHVILLE      RAIN      62  60  93 NW6       29.85R FOG

......ARKANSAS.......

CITY           SKY/WX    TMP DP  RH WIND       PRES   REMARKS
FAYETTEVILLE   PTCLDY    37  37 100 S3        30.06F
FT SMITH       CLEAR     46  45  96 SW5       30.07S
LITTLE ROCK    PTCLDY    48  46  93 W6        30.03F

......OKLAHOMA.......

CITY           SKY/WX    TMP DP  RH WIND       PRES   REMARKS
TULSA          CLEAR     48  43  82 S3        30.04S
PONCA CITY     CLEAR     49  39  68 S3        30.02F
MCALESTER      PTCLDY    43  41  93 CALM      30.08F
OKLAHOMA CITY  PTCLDY    49  39  68 S6        30.06F

......IOWA............

CITY           SKY/WX    TMP DP  RH WIND       PRES   REMARKS
DES MOINES     CLEAR     46  40  79 S9        29.90F
QUAD CITIES    CLOUDY    47  45  93 CALM      29.93F FOG

......ILLINOIS........

CITY           SKY/WX    TMP DP  RH WIND       PRES   REMARKS
QUINCY         MOCLDY    49  46  90 W5        29.94S
CHICAGO        RAIN      51  49  92 N9        29.93F FOG




USA.gov is the U.S. government's official web portal to all federal, state and local government web resources and services.